• Join FlightAware (Why Join?)
  • Login
  • US Flag GB Flag 
05:44 EDT


 

Airport Tracker/Info


-or-


 

Live Flight TrackerFlight Track Log ✈ N606FT ✈ 10-Sep-2013 ✈ KGIF - KCOI

Flight Track Log - Related Links

Times and Time Zones

All times are in EDT time to prevent confusion due to time zone crossing. See the N606FT flight status page for this flight to view local times or setup timezone preferences in your user account.

Time Position Orientation Groundspeed Altitude Reporting Facility
EDT Latitude Longitude Course Direction KTS MPH feet Rate Location/Type
11:09 27.9167 -81.8333 74° East 87 100 2,900  Level Tampa TRACON
11:10 27.9333 -81.8167 41° Northeast 83 96 2,900  Level Orlando TRACON
11:11 27.9500 -81.8000 41° Northeast 89 102 2,900  Level Orlando TRACON
11:12 27.9667 -81.7667 60° Northeast 86 99 2,900  Level Orlando TRACON
11:13 27.9833 -81.7500 41° Northeast 87 100 2,900 -60 Level Orlando TRACON
11:14 28.1190 -81.5344 74° East  Level FlightAware Approximate
11:14 28.0000 -81.7167 60° Northeast 88 101 2,800  Level Orlando TRACON
11:15 28.0000 -81.7000 90° East 88 101 2,900  Climbing Orlando TRACON
11:16 28.0167 -81.6833 41° Northeast 88 101 2,800 -60 Descending Orlando TRACON
11:17 28.0333 -81.6500 60° Northeast 87 100 2,800  Level Orlando TRACON
11:18 28.0500 -81.6333 41° Northeast 89 102 2,900  Climbing Orlando TRACON
11:19 28.0500 -81.6167 90° East 90 104 2,900 -60 Level Orlando TRACON
11:20 28.0667 -81.5833 60° Northeast 91 105 2,800 -60 Descending Orlando TRACON
11:21 28.0667 -81.5500 90° East 90 104 2,800  Level Orlando TRACON
11:22 28.0667 -81.5167 90° East 93 107 2,900  Climbing Orlando TRACON
11:23 28.0667 -81.5000 90° East 92 106 2,800 -60 Descending Orlando TRACON
11:24 28.0833 -81.4667 60° Northeast 88 101 2,800  Level Orlando TRACON
11:25 28.0833 -81.4333 90° East 88 101 2,800  Level Orlando TRACON
11:26 28.0833 -81.4167 90° East 90 104 2,800  Level Orlando TRACON
11:27 28.0833 -81.3833 90° East 88 101 2,800 -60 Level Orlando TRACON
11:28 28.0833 -81.3500 90° East 87 100 2,700 -60 Descending Orlando TRACON
11:29 28.1000 -81.3333 41° Northeast 87 100 2,700  Level Orlando TRACON
11:30 28.1167 -81.3167 41° Northeast 85 98 2,700  Level Orlando TRACON
11:31 28.1167 -81.2833 90° East 87 100 2,700 -60 Level Orlando TRACON
11:32 28.1167 -81.2500 90° East 86 99 2,600  Descending Orlando TRACON
11:33 28.1167 -81.2333 90° East 93 107 2,800 120 Climbing Orlando TRACON
11:34 28.1167 -81.2000 90° East 89 102 2,900  Climbing Orlando TRACON
11:35 28.1333 -81.1667 60° Northeast 90 104 2,800 -120 Descending Orlando TRACON
11:36 28.1500 -81.1500 41° Northeast 90 104 2,700 -60 Descending Orlando TRACON
11:37 28.1500 -81.1167 90° East 89 102 2,700  Level Orlando TRACON
11:38 28.1667 -81.1000 41° Northeast 87 100 2,700  Level Orlando TRACON
11:39 28.1667 -81.0667 90° East 82 94 2,700  Level Orlando TRACON
11:40 28.1667 -81.0333 90° East 87 100 2,700  Level Orlando TRACON
11:41 28.1667 -81.0167 90° East 88 101 2,800  Climbing Orlando TRACON
11:42 28.1833 -80.9833 60° Northeast 79 91 2,800 -60 Level Orlando TRACON
11:43 28.1833 -80.9667 90° East 90 104 2,700 -60 Descending Orlando TRACON
11:44 28.2000 -80.9500 41° Northeast 88 101 2,700 -60 Level Orlando TRACON
12:34 28.3667 -80.7500 270° West 93 107 1,900  Descending Orlando TRACON
12:35 28.3833 -80.7667 319° Northwest 90 104 2,700 480 Climbing Orlando TRACON
12:36 28.4000 -80.7833 319° Northwest 91 105 3,000 180 Climbing Orlando TRACON
12:37 28.4167 -80.8167 300° West 111 128 3,100  Climbing Orlando TRACON
12:38 28.4333 -80.8333 319° Northwest 104 120 3,000  Descending Orlando TRACON
12:39 28.4500 -80.8500 319° Northwest 102 117 3,100  Climbing Orlando TRACON
12:40 28.4833 -80.8833 319° Northwest 110 127 3,100  Level Orlando TRACON
12:41 28.5000 -80.9000 319° Northwest 104 120 3,200  Climbing Orlando TRACON
12:42 28.5167 -80.9333 300° West 104 120 3,200  Level Orlando TRACON
12:43 28.5333 -80.9500 319° Northwest 101 116 3,200  Level Orlando TRACON
12:44 28.5500 -80.9833 300° West 98 113 3,200  Level Orlando TRACON
12:45 28.5833 -81.0000 336° Northwest 96 110 3,200 -60 Level Orlando TRACON
12:46 28.6000 -81.0167 319° Northwest 99 114 3,100 -60 Descending Orlando TRACON
12:47 28.6167 -81.0333 319° Northwest 105 121 3,100 -60 Level Orlando TRACON
12:48 28.6333 -81.0667 300° West 98 113 3,000  Descending Orlando TRACON
12:49 28.6500 -81.0833 319° Northwest 90 104 3,100  Climbing Orlando TRACON
12:50 28.6667 -81.1000 319° Northwest 94 108 3,100  Level Orlando TRACON
12:51 28.6833 -81.1333 300° West 94 108 3,200  Climbing Orlando TRACON
12:52 28.7000 -81.1500 319° Northwest 94 108 3,200 -60 Level Orlando TRACON
12:53 28.6833 -81.1667 221° Southwest 100 115 3,100 -60 Descending Orlando TRACON
12:54 28.6833 -81.2000 270° West 102 117 3,100 -60 Level Orlando TRACON
12:55 28.6833 -81.2333 270° West 98 113 3,000  Descending Orlando TRACON
12:56 28.7000 -81.2500 319° Northwest 96 110 3,200 60 Climbing Orlando TRACON
12:57 28.7167 -81.2833 300° West 97 112 3,200  Level Orlando TRACON
12:58 28.7333 -81.3000 319° Northwest 105 121 3,200 -60 Level Orlando TRACON
12:59 28.7500 -81.3333 300° West 102 117 3,100 -120 Descending Orlando TRACON
13:00 28.7667 -81.3667 300° West 100 115 3,000  Descending Orlando TRACON
13:01 28.7833 -81.3833 319° Northwest 97 112 3,100  Climbing Orlando TRACON
13:02 28.8000 -81.4000 319° Northwest 91 105 3,000  Descending Orlando TRACON
13:03 28.8167 -81.4333 300° West 97 112 3,100  Climbing Orlando TRACON
13:04 28.8167 -81.4667 270° West 98 113 3,100 -60 Level Orlando TRACON
13:05 28.8333 -81.4833 319° Northwest 99 114 3,000 -60 Descending Orlando TRACON
13:06 28.8333 -81.5167 270° West 98 113 3,000  Level Orlando TRACON
13:07 28.8500 -81.5500 300° West 95 109 3,000  Level Orlando TRACON
13:08 28.8500 -81.5833 270° West 95 109 3,000  Level Orlando TRACON
13:09 28.8500 -81.6000 270° West 95 109 3,000  Level Orlando TRACON
13:10 28.8667 -81.6333 300° West 97 112 3,100 60 Climbing Orlando TRACON
13:11 28.8833 -81.6667 300° West 96 110 3,200 60 Climbing Orlando TRACON